FW2439 Weather Reports


time (UTC)temp
F
wind
direction
speed
knots
gust
knots
rain 1hr
in
rain 24hr
in
rain mn
in
humidity
%
barometer
mb
20260502163004 66 344 1.7 4.3 0.00 0.00 0.00 44 1018.9
20260502161504 65 210 1.7 7.0 0.00 0.00 0.00 43 1019.0
20260502151614 65 229 0.0 0.9 0.00 0.00 0.00 51 1019.0
20260502123029 44 261 0.0 0.0 0.00 0.00 0.00 96 1018.3
20260502121531 43 261 0.0 0.0 0.00 0.00 0.00 96 1018.2
20260502114528 41 261 0.0 0.0 0.00 0.00 0.00 95 1018.0
20260502113027 41 261 0.0 0.0 0.00 0.00 0.00 95 1017.7
20260502111524 40 261 0.0 1.7 0.00 0.00 0.00 95 1017.5
20260502110023 40 271 0.0 0.0 0.00 0.00 0.00 94 1017.5
20260502104526 41 271 0.0 0.0 0.00 0.00 0.00 94 1017.5
20260502103019 41 271 0.0 0.0 0.00 0.00 0.00 93 1017.4
20260502101516 41 271 0.0 0.0 0.00 0.00 0.00 93 1017.3
20260502091516 43 271 0.0 0.0 0.00 0.00 0.00 91 1017.0
20260502070106 48 271 0.0 0.0 0.00 0.00 0.00 86 1017.4
20260502064549 48 271 0.0 0.0 0.00 0.00 0.00 83 1017.6
20260502063044 48 271 0.0 0.0 0.00 0.00 0.00 83 1017.8
20260502061543 49 271 0.0 0.0 0.00 0.00 0.00 82 1017.8
20260502060044 49 271 0.0 0.0 0.00 0.00 0.00 82 1017.8
20260502054554 50 271 0.0 0.0 0.00 0.00 0.00 80 1017.7
20260502053036 50 271 0.0 0.0 0.00 0.00 0.00 80 1017.9
20260502051536 51 271 0.0 0.0 0.00 0.00 0.00 78 1018.0
20260502050030 51 271 0.0 0.0 0.00 0.00 0.00 75 1017.9
20260502044530 51 271 0.0 0.0 0.00 0.00 0.00 75 1017.7
20260502043028 52 271 0.0 0.0 0.00 0.00 0.00 73 1017.4
20260502041551 52 271 0.0 0.9 0.00 0.00 0.00 73 1017.4
20260502040045 51 271 0.0 0.9 0.00 0.00 0.00 75 1017.2
20260502034527 50 302 0.0 1.7 0.00 0.00 0.00 79 1017.2
20260502033031 50 302 0.0 0.9 0.00 0.00 0.00 82 1017.4
20260502031526 51 302 0.0 0.0 0.00 0.00 0.00 84 1018.0
20260502030030 51 302 0.0 0.0 0.00 0.00 0.00 83 1018.2
20260502024525 51 302 0.0 0.0 0.00 0.00 0.00 80 1018.3
20260502023031 52 302 0.0 0.0 0.00 0.00 0.00 78 1018.3
20260502021523 52 302 0.0 0.0 0.00 0.00 0.00 79 1018.0
20260502020022 53 302 0.0 0.0 0.00 0.00 0.00 76 1018.1
20260502014529 53 302 0.0 0.0 0.00 0.00 0.00 76 1017.5
20260502013021 54 302 0.0 0.0 0.00 0.00 0.00 73 1017.4
20260502011521 55 302 0.0 0.0 0.00 0.00 0.00 70 1017.1
20260502010023 56 302 0.0 0.0 0.00 0.00 0.00 66 1016.9
20260502004520 57 302 0.0 0.0 0.00 0.00 0.00 60 1016.6
20260502003019 58 302 0.0 0.0 0.00 0.00 0.00 62 1016.5
20260502001519 60 302 0.0 0.9 0.00 0.00 0.00 54 1016.4
20260502000018 61 308 0.0 0.9 0.00 0.00 0.00 54 1016.0
20260501234518 61 312 0.0 0.9 0.00 0.00 0.00 52 1015.9
20260501233018 62 312 0.0 3.5 0.00 0.00 0.00 48 1015.5
20260501231518 63 309 0.0 3.5 0.00 0.00 0.00 45 1015.4
20260501230032 64 307 0.9 3.5 0.00 0.00 0.00 45 1015.1
20260501224514 64 318 0.0 1.7 0.00 0.00 0.00 45 1015.1
20260501223019 64 314 0.0 3.5 0.00 0.00 0.00 45 1014.9
20260501221512 65 307 0.9 3.5 0.00 0.00 0.00 47 1015.1
20260501220011 64 274 1.7 3.5 0.00 0.00 0.00 46 1014.9
20260501214509 64 303 0.0 6.1 0.00 0.00 0.00 50 1014.8
20260501213008 64 302 0.9 2.6 0.00 0.00 0.00 49 1014.7
20260501211507 65 317 0.9 3.5 0.00 0.00 0.00 49 1014.8
20260501210004 65 265 1.7 5.2 0.00 0.00 0.00 48 1015.3
20260501204502 65 286 0.0 3.5 0.00 0.00 0.00 54 1015.5
20260501203100 64 279 0.9 7.0 0.00 0.00 0.00 50 1015.9
20260501201559 64 220 0.9 3.5 0.00 0.00 0.00 53 1016.2
20260501200058 65 333 0.9 2.6 0.00 0.00 0.00 53 1016.4
20260501194556 65 226 0.9 4.3 0.00 0.00 0.00 52 1016.6
20260501193055 65 91 0.9 4.3 0.00 0.00 0.00 53 1016.9
20260501191555 65 255 1.7 5.2 0.00 0.00 0.00 50 1016.9
20260501190054 65 244 2.6 7.0 0.00 0.00 0.00 52 1017.2
20260501184553 65 44 0.9 4.3 0.00 0.00 0.00 57 1017.3
20260501183052 66 314 0.9 4.3 0.00 0.00 0.00 56 1017.3
20260501181555 66 352 1.7 4.3 0.00 0.00 0.00 57 1017.3